This demonstration page uses our WeatherBlox Daily Observations layout. Learn more.

Left ArrowRight Arrow

Hourly Observations for October 24, 2015

Temp ( °F °C ) Dew Point ( °F °C ) Humidity (%) Winds ( mph kmh ) Pressure ( in mb ) Visibility ( mi km ) Precip ( " mm )
12:53 am 00:53 Clear 57 13.9 54 12.2 90 90 Calm 30.14 1021 10 16 0.00 0.00
1:53 am 01:53 Clear 56 13.3 53 11.7 90 90 Calm 30.13 1020 10 16 0.00 0.00
2:53 am 02:53 Clear 55 12.8 52 11.1 90 90 Calm 30.14 1021 10 16 0.00 0.00
3:53 am 03:53 Clear 55 12.8 52 11.1 90 90 Calm 30.13 1020 10 16 0.00 0.00
4:53 am 04:53 Clear 53 11.7 51 10.6 93 93 Calm 30.12 1020 9 14 0.00 0.00
5:53 am 05:53 Clear 55 12.8 52 11.1 90 90 Calm 30.14 1021 10 16 0.00 0.00
6:53 am 06:53 Clear 55 12.8 53 11.7 93 93 NNE 3 6 30.14 1021 10 16 0.00 0.00
7:53 am 07:53 Sunny 58 14.4 55 12.8 90 90 Calm 30.15 1021 10 16 0.00 0.00
8:53 am 08:53 Sunny 59 15 56 13.3 90 90 Calm 30.16 1022 10 16 0.00 0.00
9:53 am 09:53 Sunny 62 16.7 58 14.4 86 86 NNE 3 6 30.18 1022 10 16 0.00 0.00
10:53 am 10:53 Sunny 66 18.9 60 15.6 81 81 NE 3 6 30.18 1022 10 16 0.00 0.00
11:53 am 11:53 Sunny 71 21.7 60 15.6 68 68 Calm 30.19 1023 10 16 0.00 0.00
12:53 pm 12:53 Sunny 74 23.3 60 15.6 62 62 Calm 30.17 1022 10 16 0.00 0.00
1:53 pm 13:53 Mostly Sunny 75 23.9 57 13.9 54 54 SE 7 11 30.16 1021 10 16 0.00 0.00
2:53 pm 14:53 Sunny 76 24.4 58 14.4 54 54 SSE 6 9 30.14 1021 10 16 0.00 0.00
3:53 pm 15:53 Partly Cloudy 76 24.4 59 15 56 56 S 6 9 30.12 1020 10 16 0.00 0.00
4:53 pm 16:53 Mostly Sunny 75 23.9 59 15 58 58 E 6 9 30.12 1020 10 16 0.00 0.00
5:53 pm 17:53 Sunny 74 23.3 60 15.6 62 62 E 5 7 30.11 1020 10 16 0.00 0.00
6:53 pm 18:53 Sunny 72 22.2 59 15 64 64 E 6 9 30.11 1020 10 16 0.00 0.00
7:53 pm 19:53 Clear 68 20 61 16.1 78 78 Calm 30.14 1021 10 16 0.00 0.00
8:53 pm 20:53 Clear 65 18.3 61 16.1 87 87 Calm 30.16 1021 10 16 0.00 0.00
9:53 pm 21:53 Clear 63 17.2 59 15 87 87 NE 5 7 30.16 1021 10 16 0.00 0.00
10:53 pm 22:53 Clear 63 17.2 59 15 87 87 ENE 6 9 30.14 1021 10 16 0.00 0.00
11:53 pm 23:53 Clear 61 16.1 58 14.4 90 90 Calm 30.15 1021 10 16 0.00 0.00

Powered by AerisWeather